User: anonymous   Login
Location: Fort Wayne
(41.1310°N, 85.1290°W)
Time: 06:59:48
(UTC-04:00)
Language:

IDEFIX/ARIANE 42P - Orbit

View from above orbital plane
View from above orbital plane
View from above satellite
View from above satellite

Ground track
Ground track

The orbit data is extracted from the following two-line orbital elements,

1 27422U 02021B   17149.95769679 -.00000015 +00000-0 +10040-4 0  9998
2 27422 098.2295 151.2423 0011045 293.4426 066.5595 14.29253813785962
Epoch (UTC): 29 May 2017 22:59:05
Eccentricity: 0.0011045
inclination: 98.2295°
perigee height: 786 km
apogee height: 802 km
right ascension of ascending node: 151.2423°
argument of perigee: 293.4426°
revolutions per day: 14.29253813
mean anomaly at epoch: 66.5595°
orbit number at epoch: 78596

The dashed part of the orbit path shows where the satellite is in the earth's shadow,  

DLR